• In Netherlands
  • List of Countries
  • For 7 days
  • Water Temperature
  • Satellite Maps
  • Weather Map
  • Weather Widgets
  • user-avatar
    Login

    Hourly Weather Nakhchivan

    Today, 23 June, Friday

    Time Temperature Precipitation Wind Pressure Humidity
    00:00 +21°C° 0.1 mm 1 mps 686 mmHg 60%
    01:00 +20°C° 0 mm 1 mps 686 mmHg 61%
    02:00 +20°C° 0 mm 1 mps 686 mmHg 62%
    03:00 +18°C° 0 mm 2 mps 686 mmHg 64%
    04:00 +19°C° 0 mm 2 mps 686 mmHg 62%
    05:00 +20°C° 0 mm 1 mps 686 mmHg 60%
    06:00 +21°C° 0 mm 1 mps 687 mmHg 58%
    07:00 +22°C° 0 mm 1 mps 687 mmHg 53%
    08:00 +24°C° 0 mm 1 mps 687 mmHg 47%
    09:00 +25°C° 0 mm 1 mps 687 mmHg 41%
    10:00 +26°C° 0 mm 1 mps 687 mmHg 38%
    11:00 +28°C° 0 mm 1 mps 687 mmHg 34%
    12:00 +29°C° 0 mm 1 mps 687 mmHg 31%
    13:00 +30°C° 0 mm 2 mps 687 mmHg 29%
    14:00 +30°C° 0 mm 2 mps 687 mmHg 27%
    15:00 +31°C° 0 mm 2 mps 686 mmHg 25%
    16:00 +30°C° 0 mm 2 mps 686 mmHg 26%
    17:00 +30°C° 0 mm 2 mps 686 mmHg 26%
    18:00 +30°C° 0 mm 2 mps 686 mmHg 27%
    19:00 +28°C° 0.1 mm 2 mps 686 mmHg 33%
    20:00 +26°C° 0.1 mm 2 mps 687 mmHg 40%
    21:00 +24°C° 0.1 mm 2 mps 687 mmHg 46%
    22:00 +23°C° 0 mm 2 mps 687 mmHg 49%
    23:00 +23°C° 0 mm 2 mps 687 mmHg 52%

    Tomorrow, 24 June, Saturday

    Time Temperature Precipitation Wind Pressure Humidity
    00:00 +21°C° 0 mm 2 mps 687 mmHg 55%
    01:00 +20°C° 0 mm 2 mps 687 mmHg 56%
    02:00 +20°C° 0 mm 2 mps 687 mmHg 58%
    03:00 +19°C° 0 mm 2 mps 687 mmHg 60%
    04:00 +20°C° 0 mm 2 mps 687 mmHg 58%
    05:00 +21°C° 0 mm 1 mps 687 mmHg 56%
    06:00 +21°C° 0 mm 1 mps 687 mmHg 55%
    07:00 +23°C° 0 mm 1 mps 688 mmHg 48%
    08:00 +25°C° 0 mm 1 mps 688 mmHg 41%
    09:00 +27°C° 0 mm 1 mps 688 mmHg 35%
    10:00 +28°C° 0 mm 1 mps 687 mmHg 31%
    11:00 +29°C° 0 mm 1 mps 687 mmHg 28%
    12:00 +31°C° 0 mm 1 mps 687 mmHg 25%
    13:00 +31°C° 0 mm 1 mps 687 mmHg 24%
    14:00 +32°C° 0 mm 2 mps 686 mmHg 22%
    15:00 +34°C° 0 mm 2 mps 686 mmHg 21%
    16:00 +32°C° 0 mm 2 mps 686 mmHg 22%
    17:00 +32°C° 0 mm 2 mps 686 mmHg 22%
    18:00 +31°C° 0 mm 2 mps 686 mmHg 23%
    19:00 +29°C° 0 mm 2 mps 686 mmHg 28%
    20:00 +27°C° 0 mm 2 mps 686 mmHg 33%
    21:00 +25°C° 0 mm 2 mps 686 mmHg 38%
    22:00 +24°C° 0 mm 2 mps 686 mmHg 40%
    23:00 +24°C° 0 mm 2 mps 686 mmHg 43%

    Day after tomorrow, 25 June, Sunday

    Time Temperature Precipitation Wind Pressure Humidity
    00:00 +23°C° 0 mm 2 mps 686 mmHg 45%
    01:00 +23°C° 0 mm 2 mps 686 mmHg 47%
    02:00 +21°C° 0 mm 2 mps 686 mmHg 48%
    03:00 +22°C° 0 mm 1 mps 686 mmHg 49%
    04:00 +22°C° 0 mm 1 mps 686 mmHg 48%
    05:00 +23°C° 0 mm 1 mps 686 mmHg 46%
    06:00 +23°C° 0 mm 1 mps 687 mmHg 44%
    07:00 +25°C° 0 mm 1 mps 687 mmHg 39%
    08:00 +27°C° 0 mm 2 mps 687 mmHg 34%
    09:00 +29°C° 0 mm 2 mps 687 mmHg 28%
    10:00 +30°C° 0 mm 2 mps 687 mmHg 26%
    11:00 +31°C° 0 mm 2 mps 687 mmHg 24%
    12:00 +34°C° 0 mm 2 mps 687 mmHg 21%
    13:00 +34°C° 0 mm 2 mps 687 mmHg 20%
    14:00 +35°C° 0 mm 2 mps 686 mmHg 19%
    15:00 +35°C° 0 mm 2 mps 686 mmHg 18%
    16:00 +35°C° 0 mm 3 mps 686 mmHg 20%
    17:00 +34°C° 0 mm 3 mps 686 mmHg 21%
    18:00 +34°C° 0 mm 3 mps 686 mmHg 22%
    19:00 +31°C° 0 mm 3 mps 686 mmHg 28%
    20:00 +28°C° 0 mm 3 mps 687 mmHg 34%
    21:00 +26°C° 0 mm 2 mps 687 mmHg 40%
    22:00 +25°C° 0 mm 2 mps 687 mmHg 43%
    23:00 +25°C° 0 mm 2 mps 687 mmHg 46%

    26 June, Monday

    Time Temperature Precipitation Wind Pressure Humidity
    00:00 +24°C° 0 mm 2 mps 688 mmHg 49%
    01:00 +23°C° 0 mm 2 mps 688 mmHg 51%
    02:00 +23°C° 0 mm 2 mps 688 mmHg 53%
    03:00 +21°C° 0 mm 2 mps 688 mmHg 54%
    04:00 +23°C° 0 mm 1 mps 688 mmHg 52%
    05:00 +23°C° 0 mm 1 mps 688 mmHg 50%
    06:00 +24°C° 0 mm 1 mps 689 mmHg 48%
    07:00 +26°C° 0 mm 1 mps 689 mmHg 43%
    08:00 +28°C° 0 mm 1 mps 689 mmHg 37%
    09:00 +30°C° 0 mm 1 mps 689 mmHg 31%
    10:00 +31°C° 0 mm 2 mps 689 mmHg 28%
    11:00 +32°C° 0 mm 2 mps 689 mmHg 25%
    12:00 +35°C° 0 mm 2 mps 689 mmHg 22%
    13:00 +35°C° 0 mm 3 mps 688 mmHg 21%
    14:00 +36°C° 0 mm 3 mps 688 mmHg 20%
    15:00 +37°C° 0 mm 3 mps 688 mmHg 19%
    16:00 +36°C° 0 mm 3 mps 688 mmHg 20%
    17:00 +36°C° 0 mm 3 mps 688 mmHg 22%
    18:00 +35°C° 0 mm 4 mps 688 mmHg 23%
    19:00 +33°C° 0 mm 3 mps 688 mmHg 29%
    20:00 +29°C° 0 mm 3 mps 688 mmHg 35%
    21:00 +27°C° 0 mm 2 mps 688 mmHg 41%
    22:00 +26°C° 0 mm 2 mps 688 mmHg 43%
    23:00 +26°C° 0 mm 2 mps 688 mmHg 46%

    27 June, Tuesday

    Time Temperature Precipitation Wind Pressure Humidity
    00:00 +25°C° 0 mm 2 mps 688 mmHg 48%
    01:00 +25°C° 0 mm 2 mps 688 mmHg 50%
    02:00 +24°C° 0 mm 1 mps 688 mmHg 51%
    03:00 +24°C° 0 mm 1 mps 688 mmHg 52%
    04:00 +24°C° 0 mm 1 mps 688 mmHg 50%
    05:00 +25°C° 0 mm 1 mps 688 mmHg 47%
    06:00 +26°C° 0 mm 1 mps 688 mmHg 45%
    07:00 +28°C° 0 mm 1 mps 689 mmHg 40%
    08:00 +30°C° 0 mm 1 mps 689 mmHg 34%
    09:00 +32°C° 0 mm 1 mps 689 mmHg 28%
    10:00 +33°C° 0 mm 1 mps 688 mmHg 26%
    11:00 +35°C° 0 mm 1 mps 688 mmHg 23%
    12:00 +36°C° 0 mm 1 mps 688 mmHg 20%
    13:00 +38°C° 0 mm 2 mps 688 mmHg 19%
    14:00 +39°C° 0 mm 2 mps 687 mmHg 18%
    15:00 +39°C° 0 mm 2 mps 687 mmHg 16%
    16:00 +39°C° 0 mm 2 mps 687 mmHg 17%
    17:00 +38°C° 0 mm 3 mps 687 mmHg 18%
    18:00 +38°C° 0 mm 3 mps 687 mmHg 19%
    19:00 +35°C° 0 mm 3 mps 687 mmHg 24%
    20:00 +32°C° 0 mm 2 mps 687 mmHg 29%
    21:00 +29°C° 0 mm 2 mps 687 mmHg 34%
    22:00 +29°C° 0 mm 2 mps 687 mmHg 37%
    23:00 +28°C° 0 mm 2 mps 687 mmHg 39%

    28 June, Wednesday

    Time Temperature Precipitation Wind Pressure Humidity
    00:00 +27°C° 0 mm 2 mps 687 mmHg 41%
    01:00 +26°C° 0 mm 2 mps 687 mmHg 43%
    02:00 +26°C° 0 mm 2 mps 687 mmHg 45%
    03:00 +25°C° 0 mm 2 mps 687 mmHg 46%
    04:00 +26°C° 0 mm 2 mps 687 mmHg 45%
    05:00 +26°C° 0 mm 1 mps 687 mmHg 44%
    06:00 +27°C° 0 mm 1 mps 687 mmHg 43%
    07:00 +29°C° 0 mm 1 mps 687 mmHg 38%
    08:00 +31°C° 0 mm 1 mps 688 mmHg 32%
    09:00 +33°C° 0 mm 1 mps 688 mmHg 27%
    10:00 +35°C° 0 mm 2 mps 687 mmHg 24%
    11:00 +37°C° 0 mm 2 mps 687 mmHg 22%
    12:00 +38°C° 0 mm 2 mps 687 mmHg 19%
    13:00 +39°C° 0 mm 3 mps 686 mmHg 19%
    14:00 +39°C° 0 mm 3 mps 686 mmHg 18%
    15:00 +41°C° 0 mm 4 mps 685 mmHg 17%
    16:00 +40°C° 0 mm 4 mps 685 mmHg 19%
    17:00 +38°C° 0 mm 4 mps 685 mmHg 21%
    18:00 +37°C° 0 mm 5 mps 685 mmHg 22%
    19:00 +35°C° 0 mm 4 mps 685 mmHg 27%
    20:00 +33°C° 0 mm 3 mps 685 mmHg 32%
    21:00 +29°C° 0 mm 3 mps 685 mmHg 37%
    22:00 +28°C° 0 mm 2 mps 685 mmHg 39%
    23:00 +28°C° 0 mm 2 mps 685 mmHg 41%
    Show more